Weather History for Jackson, MI

Change the Weather History Date:

Saturday, March 22, 2014

  Actual Average Record
Temperature  
Mean Temperature 32 °F 38 °F  
Max Temperature 39 °F 48 °F 84 °F (2012)
Min Temperature 25 °F 28 °F 10 °F (1959)
Degree Days  
Heating Degree Days 33 27  
Month to date heating degree days 871 685  
Since 1 July heating degree days 6435 5599  
Cooling Degree Days 0 0  
Month to date cooling degree days 0 0  
Year to date cooling degree days 0 0  
Moisture  
Dew Point 28 °F    
Average Humidity 76    
Maximum Humidity 92    
Minimum Humidity 59    
Precipitation  
Precipitation 0.05 in 0.06 in 0.70 in (1975)
Month to date precipitation 1.78 1.27  
Year to date precipitation 6.06 4.05  
Sea Level Pressure  
Sea Level Pressure 30.00 in    
Wind  
Wind Speed 10 mph (NW)    
Max Wind Speed 20 mph    
Max Gust Speed 30 mph    
Visibility 8 miles    
Events Rain    
T = Trace of Precipitation, MM = Missing Value Source: NWS Daily Summary

Daily Weather History Graph

Daily Weather History Graph

Search for Another Location

Airport:

Trip Planner

Search our weather history database for the weather conditions in past years. The results will help you decide how hot, cold, wet, or windy it might be!

Date:

Astronomy

Mar. 22, 2014 Rise Set
Actual Time 7:37 AM EDT 7:52 PM EDT
Civil Twilight 7:09 AM EDT 8:20 PM EDT
Nautical Twilight 6:36 AM EDT 8:53 PM EDT
Astronomical Twilight 6:03 AM EDT 9:27 PM EDT
Moon 1:15 AM EDT (3/22) 11:14 AM EDT (3/22)
Length of Visible Light 13h 10m
Length of Day
12h 14m
Waning Gibbous, 65% of the Moon is Illuminated
Mar 22
Waning Gibbous
Mar 23
Last Quarter
Mar 30
New
Apr 7
First Quarter
Apr 15
Full

Hourly Weather History & Observations

Time (EDT) Temp. Windchill Dew Point Humidity Pressure Visibility Wind Dir Wind Speed Gust Speed Precip Events Conditions
12:25 AM 34.0 °F - 33.1 °F 96% 29.73 in 2.5 mi Calm Calm - 0.05 in Rain Rain
12:30 AM 34.0 °F - 33.1 °F 96% 29.75 in 2.5 mi North - - 0.05 in Rain Light Rain
12:56 AM 35.1 °F - 34.0 °F 96% 29.75 in 2.5 mi Calm Calm - 0.12 in Rain Rain
1:56 AM 35.1 °F 31.0 °F 34.0 °F 96% 29.70 in 3.0 mi South 4.6 mph - 0.06 in   Overcast
2:17 AM 34.0 °F 28.8 °F 33.1 °F 96% 29.68 in 2.5 mi SSW 5.8 mph - N/A   Mostly Cloudy
2:56 AM 35.1 °F 29.3 °F 33.1 °F 92% 29.72 in 3.0 mi WSW 6.9 mph - N/A   Mostly Cloudy
3:56 AM 37.9 °F 30.0 °F 36.0 °F 93% 29.75 in 6.0 mi West 12.7 mph - N/A   Clear
4:22 AM 37.9 °F 29.6 °F 36.0 °F 93% 29.76 in 5.0 mi WNW 13.8 mph - N/A   Mostly Cloudy
4:56 AM 37.9 °F 28.9 °F 35.1 °F 89% 29.81 in 6.0 mi WNW 16.1 mph 29.9 mph N/A   Overcast
5:56 AM 37.0 °F 27.7 °F 33.1 °F 86% 29.86 in 7.0 mi NW 16.1 mph 25.3 mph N/A   Overcast
6:15 AM 36.0 °F 29.0 °F 32.0 °F 86% 29.85 in 7.0 mi NW 9.2 mph 24.2 mph N/A   Overcast
6:56 AM 35.1 °F 27.9 °F 30.9 °F 85% 29.91 in 7.0 mi NNW 9.2 mph 20.7 mph N/A   Overcast
7:09 AM 34.0 °F 27.2 °F 30.9 °F 89% 29.89 in 7.0 mi NW 8.1 mph - N/A   Scattered Clouds
7:56 AM 34.0 °F 25.5 °F 30.0 °F 85% 29.95 in 6.0 mi NW 11.5 mph 20.7 mph N/A   Mostly Cloudy
8:56 AM 34.0 °F 28.0 °F 28.9 °F 82% 29.99 in 8.0 mi NW 6.9 mph - N/A   Overcast
9:56 AM 34.0 °F 28.8 °F 28.0 °F 79% 30.03 in 10.0 mi NW 5.8 mph - N/A   Overcast
10:56 AM 35.1 °F 27.9 °F 27.0 °F 72% 30.06 in 10.0 mi NW 9.2 mph - N/A   Overcast
11:56 AM 35.1 °F 27.4 °F 27.0 °F 72% 30.09 in 10.0 mi NW 10.4 mph - N/A   Overcast
12:56 PM 36.0 °F 29.0 °F 27.0 °F 70% 30.10 in 10.0 mi NW 9.2 mph - N/A   Overcast
1:12 PM 36.0 °F 29.0 °F 27.0 °F 70% 30.08 in 10.0 mi NW 9.2 mph - N/A   Overcast
1:56 PM 36.0 °F 28.0 °F 25.0 °F 64% 30.12 in 10.0 mi WNW 11.5 mph - N/A   Overcast
2:56 PM 39.0 °F 32.3 °F 28.0 °F 65% 30.10 in 10.0 mi NW 10.4 mph - N/A   Mostly Cloudy
3:56 PM 37.9 °F 31.5 °F 25.0 °F 60% 30.10 in 10.0 mi West 9.2 mph - N/A   Overcast
4:56 PM 37.0 °F 28.9 °F 25.0 °F 62% 30.11 in 10.0 mi WNW 12.7 mph - N/A   Overcast
5:56 PM 36.0 °F 28.0 °F 25.0 °F 64% 30.13 in 10.0 mi WNW 11.5 mph 23.0 mph N/A   Overcast
6:56 PM 34.0 °F 26.0 °F 27.0 °F 75% 30.15 in 10.0 mi NW 10.4 mph 18.4 mph N/A   Overcast
7:38 PM 33.1 °F 24.9 °F 26.1 °F 75% 30.13 in 10.0 mi NNW 10.4 mph - N/A   Overcast
7:46 PM 33.1 °F 24.9 °F 26.1 °F 75% 30.13 in 10.0 mi NNW 10.4 mph - N/A   Overcast
7:56 PM 33.1 °F 26.1 °F 25.0 °F 72% 30.17 in 10.0 mi NNW 8.1 mph - N/A   Overcast
8:27 PM 32.0 °F 23.6 °F 24.1 °F 73% 30.14 in 10.0 mi NNW 10.4 mph - N/A   Overcast
8:34 PM 32.0 °F 24.8 °F 24.1 °F 73% 30.15 in 10.0 mi NNW 8.1 mph - N/A   Overcast
8:56 PM 32.0 °F 26.4 °F 24.1 °F 73% 30.19 in 10.0 mi NW 5.8 mph - N/A   Overcast
9:18 PM 32.0 °F 22.5 °F 23.0 °F 69% 30.17 in 10.0 mi NW 12.7 mph 18.4 mph N/A   Overcast
9:56 PM 30.9 °F 21.2 °F 21.9 °F 69% 30.21 in 10.0 mi NNW 12.7 mph - N/A   Overcast
10:56 PM 28.0 °F 18.1 °F 19.0 °F 69% 30.23 in 10.0 mi North 11.5 mph 19.6 mph N/A   Mostly Cloudy
11:56 PM 27.0 °F 15.2 °F 16.0 °F 63% 30.26 in 10.0 mi NNW 15.0 mph 19.6 mph N/A   Partly Cloudy